Sigfox identifier Datetime Temperature Humidity SNR
0038B48A 2018-10-09 09:09:55 21.2 39 21.1
0038B48A 2018-10-09 08:04:12 21.2 38 21.1
0038B48A 2018-10-09 05:52:37 21.2 38 21.2
0038B48A 2018-10-09 04:46:54 21.1 37 21.3
0038B48A 2018-10-09 01:29:34 21 37 22.5
0038B48A 2018-10-08 16:43:34 21 36 22.5
0038B48A 2018-10-08 15:37:50 20.9 36 22.5
0038B48A 2018-10-08 13:26:10 20.7 35 22.4
0038B48A 2018-10-08 12:20:27 20.7 34 22.6
0038B48A 2018-10-08 11:14:34 20.5 32 22.9
0038B48A 2018-10-08 10:08:47 20.4 32 23
0038B48A 2018-10-08 09:03:00 20.3 33 22.8
0038B48A 2018-10-08 07:57:19 20.3 34 23.5
0038B48A 2018-10-08 06:51:37 20.3 34 23.5
0038B48A 2018-10-08 05:45:54 20.3 34 23.4
0038B48A 2018-10-08 04:40:10 20.3 35 23.4
0038B48A 2018-10-08 03:34:23 20.3 35 23.5
0038B48A 2018-10-08 02:28:33 20.5 36 23.8
0038B48A 2018-10-08 01:22:44 20.5 36 23.8
0038B48A 2018-10-08 00:16:56 20.5 37 23.5
0038B48A 2018-10-07 23:11:08 20.5 37 23.7
0038B48A 2018-10-07 22:05:21 20.5 37 24.1
0038B48A 2018-10-07 20:59:35 20.5 38 24.2
0038B48A 2018-10-07 19:53:47 20.5 38 24.4
0038B48A 2018-10-07 18:47:58 20.6 38 24.6
0038B48A 2018-10-07 17:42:09 20.5 38 24.6
0038B48A 2018-10-07 16:36:22 20.5 38 24.7
0038B48A 2018-10-07 15:30:33 20.5 38 24.7
0038B48A 2018-10-07 14:24:44 20.5 38 24.7
0038B48A 2018-10-07 13:18:54 20.5 38 24.1
0038B48A 2018-10-07 12:13:06 20.6 38 24.3
0038B48A 2018-10-07 11:07:16 20.6 38 24.3
0038B48A 2018-10-07 10:01:31 20.6 38 24.3
0038B48A 2018-10-07 08:55:36 20.7 39 24.4
0038B48A 2018-10-07 07:49:48 20.7 39 24.5
0038B48A 2018-10-07 06:44:00 20.7 39 24.6
0038B48A 2018-10-07 05:38:12 20.7 39 24.8
0038B48A 2018-10-07 04:32:25 20.7 39 24.3
0038B48A 2018-10-07 03:26:39 20.7 40 24.3
0038B48A 2018-10-07 02:20:54 20.7 40 24.2
0038B48A 2018-10-07 01:15:04 20.7 40 24.3
0038B48A 2018-10-07 00:09:15 20.8 40 24.4
0038B48A 2018-10-06 23:03:26 20.8 40 24.7
0038B48A 2018-10-06 21:57:37 20.8 40 24.6
0038B48A 2018-10-06 20:51:45 20.9 40 24.6
0038B48A 2018-10-06 19:45:56 21 40 24.4
0038B48A 2018-10-06 18:40:07 20.9 40 23.9
0038B48A 2018-10-06 17:34:17 21 40 23.9
0038B48A 2018-10-06 16:28:26 21 40 23.8
0038B48A 2018-10-06 15:22:37 21 40 23.6
0038B48A 2018-10-06 14:16:50 21 40 23.8
0038B48A 2018-10-06 13:11:04 21 40 23.8
0038B48A 2018-10-06 12:05:17 21 40 24
0038B48A 2018-10-06 10:59:31 21 40 24.1
0038B48A 2018-10-06 09:53:46 21 40 24.3
0038B48A 2018-10-06 08:47:57 21 40 24.3
0038B48A 2018-10-06 07:42:10 21 41 24.5
0038B48A 2018-10-06 06:36:21 21 41 24.8
0038B48A 2018-10-06 05:30:32 21 41 24.7
0038B48A 2018-10-06 04:24:45 21.1 42 24.4
0038B48A 2018-10-06 03:18:55 21.2 42 24.5
0038B48A 2018-10-06 02:13:08 21.2 42 24
0038B48A 2018-10-06 01:07:21 21.2 42 24.4
0038B48A 2018-10-06 00:01:35 21.4 43 24.2
0038B48A 2018-10-05 22:55:48 21.4 43 24.8
0038B48A 2018-10-05 21:50:03 21.4 44 24.4
0038B48A 2018-10-05 20:44:16 21.6 44 24.8
0038B48A 2018-10-05 19:38:28 21.6 44 18.5
0038B48A 2018-10-05 18:32:38 21.8 44 18.8
0038B48A 2018-10-05 17:26:49 22 44 19.3
0038B48A 2018-10-05 16:21:00 21.8 54 0